UAE1408 RJFF-RKSI

Flight info

Callsign UAE1408
Flight time 0h 57m
Altitude 36000
Route DGC G339 BEETL Y208 INVOK Z91 PSN Y782 BITUX Z53 BASEM Y685 GUKDO GUKDO2E
Aircraft A388/J-SADE2E3FGHIJ3J4J5M1RWXY/LB1D1

Departure

Time 2026-05-07 14:13
Airport Fukuoka Airport (RJFF)

Arrival

Time 2026-05-07 15:10
Airport Incheon International Airport (RKSI)
Time Latitude Longitude Altitude Speed Heading
2026-05-07 13:34 33.58641 130.44503 36 ft 0 kts 244°
2026-05-07 13:54 33.58646 130.44515 36 ft 2 kts 241°
2026-05-07 13:54 33.58654 130.44531 35 ft 2 kts 238°
2026-05-07 13:54 33.58665 130.44547 33 ft 2 kts 226°
2026-05-07 13:55 33.58680 130.44554 36 ft 2 kts 179°
2026-05-07 13:55 33.58685 130.44551 35 ft 0 kts 159°
2026-05-07 13:59 33.58689 130.44549 34 ft 2 kts 159°
2026-05-07 13:59 33.58705 130.44543 35 ft 2 kts 164°
2026-05-07 13:59 33.58720 130.44540 34 ft 2 kts 171°
2026-05-07 13:59 33.58728 130.44537 34 ft 0 kts 160°
2026-05-07 14:01 33.58723 130.44540 34 ft 1 kts 143°
2026-05-07 14:01 33.58713 130.44558 33 ft 2 kts 107°
2026-05-07 14:02 33.58711 130.44583 33 ft 7 kts 94°
2026-05-07 14:02 33.58709 130.44602 32 ft 1 kts 109°
2026-05-07 14:02 33.58706 130.44608 32 ft 1 kts 136°
2026-05-07 14:02 33.58699 130.44613 33 ft 2 kts 157°
2026-05-07 14:03 33.58697 130.44614 33 ft 0 kts 155°
2026-05-07 14:07 33.58678 130.44625 32 ft 6 kts 155°
2026-05-07 14:08 33.58622 130.44656 36 ft 11 kts 155°
2026-05-07 14:08 33.58539 130.44701 37 ft 15 kts 155°
2026-05-07 14:08 33.58441 130.44765 38 ft 18 kts 150°
2026-05-07 14:08 33.58328 130.44843 38 ft 20 kts 150°
2026-05-07 14:09 33.58204 130.44931 39 ft 21 kts 147°
2026-05-07 14:09 33.58075 130.45028 40 ft 22 kts 149°
2026-05-07 14:09 33.57939 130.45125 41 ft 23 kts 149°
2026-05-07 14:09 33.57809 130.45217 41 ft 18 kts 150°
2026-05-07 14:10 33.57734 130.45268 43 ft 11 kts 150°
2026-05-07 14:10 33.57712 130.45284 43 ft 3 kts 150°
2026-05-07 14:10 33.57680 130.45306 43 ft 8 kts 150°
2026-05-07 14:10 33.57622 130.45356 44 ft 12 kts 127°
2026-05-07 14:11 33.57611 130.45381 44 ft 1 kts 93°
2026-05-07 14:11 33.57612 130.45393 44 ft 2 kts 58°
2026-05-07 14:11 33.57621 130.45405 44 ft 0 kts 52°
2026-05-07 14:11 33.57621 130.45407 44 ft 2 kts 52°
2026-05-07 14:12 33.57643 130.45440 44 ft 8 kts 47°
2026-05-07 14:12 33.57684 130.45458 44 ft 4 kts 340°
2026-05-07 14:12 33.57697 130.45450 44 ft 5 kts 329°
2026-05-07 14:12 33.57762 130.45404 43 ft 33 kts 329°
2026-05-07 14:13 33.58236 130.45080 40 ft 119 kts 330°
2026-05-07 14:13 33.59125 130.44479 62 ft 166 kts 330°
2026-05-07 14:13 33.60123 130.43810 681 ft 164 kts 330°
2026-05-07 14:13 33.61164 130.43121 1074 ft 177 kts 330°
2026-05-07 14:14 33.62274 130.42396 1506 ft 183 kts 331°
2026-05-07 14:14 33.63390 130.41676 1903 ft 187 kts 331°
2026-05-07 14:14 33.64566 130.40928 2312 ft 190 kts 332°
2026-05-07 14:14 33.65751 130.40180 2696 ft 198 kts 331°
2026-05-07 14:15 33.66979 130.39370 3127 ft 203 kts 329°
2026-05-07 14:15 33.68170 130.38419 3562 ft 207 kts 323°
2026-05-07 14:15 33.69330 130.37395 4004 ft 209 kts 324°
2026-05-07 14:15 33.70541 130.36397 4344 ft 216 kts 323°
2026-05-07 14:16 33.71763 130.35226 4498 ft 233 kts 320°
2026-05-07 14:16 33.73076 130.33898 4843 ft 258 kts 320°
2026-05-07 14:16 33.74484 130.32498 5547 ft 267 kts 320°
2026-05-07 14:16 33.75948 130.31078 6401 ft 271 kts 321°
2026-05-07 14:17 33.77423 130.29666 7239 ft 274 kts 321°
2026-05-07 14:17 33.78921 130.28241 8067 ft 278 kts 321°
2026-05-07 14:17 33.80465 130.26774 8878 ft 281 kts 321°
2026-05-07 14:17 33.81987 130.25328 9670 ft 284 kts 321°
2026-05-07 14:18 33.83558 130.23834 10393 ft 291 kts 321°
2026-05-07 14:18 33.85191 130.22280 10925 ft 301 kts 321°
2026-05-07 14:18 33.86866 130.20685 11130 ft 318 kts 321°
2026-05-07 14:18 33.88666 130.18968 11387 ft 338 kts 321°
2026-05-07 14:19 33.90512 130.17209 12094 ft 342 kts 321°
2026-05-07 14:19 33.92368 130.15438 12837 ft 346 kts 321°
2026-05-07 14:19 33.94271 130.13622 13559 ft 350 kts 321°
2026-05-07 14:19 33.96190 130.11788 14282 ft 354 kts 321°
2026-05-07 14:20 33.98147 130.09918 14979 ft 358 kts 321°
2026-05-07 14:20 34.00104 130.08046 15656 ft 361 kts 321°
2026-05-07 14:20 34.02077 130.06159 16315 ft 365 kts 321°
2026-05-07 14:20 34.04067 130.04253 16943 ft 369 kts 321°
2026-05-07 14:21 34.06051 130.02351 17564 ft 372 kts 321°
2026-05-07 14:21 34.08129 130.00359 18182 ft 376 kts 321°
2026-05-07 14:21 34.10186 129.98386 18771 ft 379 kts 321°
2026-05-07 14:21 34.12257 129.96398 19334 ft 382 kts 321°
2026-05-07 14:22 34.14331 129.94406 19894 ft 386 kts 321°
2026-05-07 14:22 34.16436 129.92382 20431 ft 389 kts 321°
2026-05-07 14:22 34.18588 129.90312 20969 ft 392 kts 321°
2026-05-07 14:22 34.20727 129.88253 21482 ft 395 kts 321°
2026-05-07 14:23 34.22881 129.86178 21993 ft 398 kts 321°
2026-05-07 14:23 34.25062 129.84076 22480 ft 401 kts 321°
2026-05-07 14:23 34.27258 129.81960 22965 ft 404 kts 321°
2026-05-07 14:23 34.29441 129.79870 23447 ft 407 kts 321°
2026-05-07 14:24 34.31673 129.77742 23910 ft 410 kts 321°
2026-05-07 14:24 34.33926 129.75593 24371 ft 413 kts 321°
2026-05-07 14:24 34.36193 129.73427 24827 ft 416 kts 321°
2026-05-07 14:24 34.38473 129.71246 25293 ft 419 kts 321°
2026-05-07 14:25 34.40757 129.69057 25755 ft 422 kts 321°
2026-05-07 14:25 34.43086 129.66825 26245 ft 425 kts 321°
2026-05-07 14:25 34.45408 129.64596 26730 ft 429 kts 321°
2026-05-07 14:25 34.47746 129.62352 27240 ft 432 kts 321°
2026-05-07 14:26 34.50133 129.60058 27726 ft 435 kts 321°
2026-05-07 14:26 34.52493 129.57788 28223 ft 439 kts 321°
2026-05-07 14:26 34.54850 129.55521 28715 ft 442 kts 321°
2026-05-07 14:26 34.57307 129.53154 29238 ft 444 kts 321°
2026-05-07 14:27 34.59695 129.50852 29800 ft 446 kts 321°
2026-05-07 14:27 34.62141 129.48493 29978 ft 451 kts 321°
2026-05-07 14:27 34.64588 129.46131 29995 ft 453 kts 321°
2026-05-07 14:28 34.69536 129.41349 30000 ft 451 kts 321°
2026-05-07 14:28 34.74471 129.36572 30001 ft 451 kts 321°
2026-05-07 14:29 34.79329 129.31862 30000 ft 451 kts 321°
2026-05-07 14:29 34.84286 129.27075 29999 ft 451 kts 321°
2026-05-07 14:30 34.89212 129.22319 30001 ft 451 kts 321°
2026-05-07 14:30 34.94126 129.17564 30001 ft 451 kts 321°
2026-05-07 14:31 34.99008 129.12831 30000 ft 451 kts 321°
2026-05-07 14:31 35.03943 129.08039 30000 ft 451 kts 321°
2026-05-07 14:32 35.08844 129.03275 29999 ft 451 kts 322°
2026-05-07 14:32 35.11506 129.01218 30002 ft 452 kts 333°
2026-05-07 14:32 35.14344 128.99635 30001 ft 453 kts 336°
2026-05-07 14:33 35.20155 128.96520 30000 ft 467 kts 335°
2026-05-07 14:33 35.23151 128.94796 30001 ft 478 kts 334°
2026-05-07 14:33 35.26175 128.93001 30000 ft 482 kts 334°
2026-05-07 14:34 35.32137 128.89401 30000 ft 480 kts 333°
2026-05-07 14:34 35.38156 128.85751 30001 ft 481 kts 333°
2026-05-07 14:35 35.44160 128.82108 30000 ft 480 kts 333°
2026-05-07 14:35 35.50133 128.78479 30001 ft 481 kts 333°
2026-05-07 14:36 35.56104 128.74846 30001 ft 480 kts 333°
2026-05-07 14:36 35.62112 128.71183 30000 ft 483 kts 333°
2026-05-07 14:37 35.68105 128.67525 29999 ft 479 kts 333°
2026-05-07 14:37 35.76089 128.62640 30000 ft 483 kts 333°
2026-05-07 14:38 35.82131 128.58936 30001 ft 481 kts 333°
2026-05-07 14:38 35.88099 128.55272 29999 ft 479 kts 333°
2026-05-07 14:39 35.93913 128.51696 29761 ft 461 kts 333°
2026-05-07 14:39 35.96751 128.49948 29503 ft 449 kts 333°
2026-05-07 14:39 35.99498 128.48255 29253 ft 442 kts 333°
2026-05-07 14:40 36.02268 128.46546 29007 ft 443 kts 333°
2026-05-07 14:40 36.05044 128.44832 28750 ft 442 kts 333°
2026-05-07 14:40 36.07784 128.43139 28497 ft 441 kts 333°
2026-05-07 14:40 36.10501 128.41460 28254 ft 438 kts 333°
2026-05-07 14:41 36.13235 128.39768 28040 ft 437 kts 333°
2026-05-07 14:41 36.15955 128.38083 27995 ft 436 kts 333°
2026-05-07 14:41 36.18653 128.36412 27997 ft 436 kts 333°
2026-05-07 14:41 36.21338 128.34746 28002 ft 437 kts 333°
2026-05-07 14:42 36.26766 128.31376 28002 ft 438 kts 333°
2026-05-07 14:42 36.32211 128.27990 28001 ft 435 kts 333°
2026-05-07 14:43 36.34930 128.26297 28000 ft 429 kts 333°
2026-05-07 14:43 36.37548 128.24666 27996 ft 415 kts 333°
2026-05-07 14:43 36.42657 128.21479 28003 ft 411 kts 333°
2026-05-07 14:44 36.45193 128.19895 28000 ft 411 kts 333°
2026-05-07 14:44 36.47748 128.18298 27996 ft 407 kts 333°
2026-05-07 14:44 36.52893 128.15078 27999 ft 426 kts 333°
2026-05-07 14:45 36.55530 128.13426 28004 ft 439 kts 333°
2026-05-07 14:45 36.58330 128.11672 27998 ft 446 kts 333°
2026-05-07 14:45 36.63919 128.08165 28002 ft 448 kts 333°
2026-05-07 14:46 36.69434 128.04698 27990 ft 433 kts 333°
2026-05-07 14:46 36.72096 128.03023 27851 ft 419 kts 333°
2026-05-07 14:46 36.74634 128.01425 27727 ft 405 kts 333°
2026-05-07 14:47 36.77121 127.99857 27555 ft 394 kts 333°
2026-05-07 14:47 36.79526 127.98339 27277 ft 389 kts 333°
2026-05-07 14:47 36.81923 127.96795 27028 ft 391 kts 329°
2026-05-07 14:47 36.84156 127.94802 26776 ft 389 kts 318°
2026-05-07 14:48 36.86003 127.92380 26534 ft 386 kts 308°
2026-05-07 14:48 36.87537 127.89646 26284 ft 384 kts 304°
2026-05-07 14:48 36.89071 127.86889 26030 ft 383 kts 305°
2026-05-07 14:48 36.90604 127.84177 25781 ft 382 kts 305°
2026-05-07 14:49 36.92125 127.81487 25530 ft 381 kts 305°
2026-05-07 14:49 36.93645 127.78791 25288 ft 379 kts 305°
2026-05-07 14:49 36.95155 127.76111 25034 ft 377 kts 305°
2026-05-07 14:49 36.96835 127.73581 24752 ft 375 kts 318°
2026-05-07 14:50 36.98846 127.71530 24349 ft 373 kts 321°
2026-05-07 14:50 37.00794 127.69588 23932 ft 370 kts 321°
2026-05-07 14:50 37.02817 127.67569 23469 ft 368 kts 321°
2026-05-07 14:50 37.04862 127.65528 22993 ft 367 kts 321°
2026-05-07 14:51 37.06855 127.63537 22579 ft 363 kts 321°
2026-05-07 14:51 37.08843 127.61550 21820 ft 369 kts 321°
2026-05-07 14:51 37.10846 127.59547 20899 ft 379 kts 321°
2026-05-07 14:51 37.12943 127.57449 20083 ft 385 kts 321°
2026-05-07 14:52 37.14993 127.55397 19489 ft 383 kts 321°
2026-05-07 14:52 37.17077 127.53311 18941 ft 379 kts 321°
2026-05-07 14:52 37.19134 127.51245 18368 ft 375 kts 320°
2026-05-07 14:52 37.20979 127.48924 17762 ft 372 kts 305°
2026-05-07 14:53 37.22126 127.46048 17195 ft 368 kts 287°
2026-05-07 14:53 37.22461 127.42908 16649 ft 365 kts 268°
2026-05-07 14:53 37.22198 127.39756 16063 ft 362 kts 261°
2026-05-07 14:53 37.21809 127.36654 15498 ft 359 kts 261°
2026-05-07 14:54 37.21424 127.33586 14930 ft 356 kts 261°
2026-05-07 14:54 37.21043 127.30547 14374 ft 353 kts 261°
2026-05-07 14:54 37.20664 127.27523 14193 ft 339 kts 261°
2026-05-07 14:54 37.20306 127.24672 14068 ft 326 kts 261°
2026-05-07 14:55 37.19951 127.21926 13955 ft 313 kts 259°
2026-05-07 14:55 37.19381 127.19347 13736 ft 304 kts 246°
2026-05-07 14:55 37.18209 127.17132 13325 ft 302 kts 227°
2026-05-07 14:55 37.16550 127.15638 12935 ft 301 kts 204°
2026-05-07 14:56 37.14603 127.14705 12546 ft 300 kts 201°
2026-05-07 14:56 37.12641 127.13773 12169 ft 298 kts 201°
2026-05-07 14:56 37.10712 127.12855 11788 ft 296 kts 201°
2026-05-07 14:56 37.08796 127.11944 11406 ft 294 kts 201°
2026-05-07 14:57 37.06908 127.11046 11020 ft 293 kts 201°
2026-05-07 14:57 37.05038 127.10067 10464 ft 288 kts 211°
2026-05-07 14:57 37.03606 127.08362 9910 ft 287 kts 237°
2026-05-07 14:57 37.02907 127.06037 9430 ft 284 kts 263°
2026-05-07 14:58 37.03105 127.03622 9112 ft 282 kts 290°
2026-05-07 14:58 37.04140 127.01562 9030 ft 282 kts 311°
2026-05-07 14:58 37.05459 126.99711 8920 ft 283 kts 311°
2026-05-07 14:58 37.06752 126.97879 8810 ft 283 kts 311°
2026-05-07 14:59 37.08070 126.96014 8717 ft 282 kts 311°
2026-05-07 14:59 37.09343 126.94210 8618 ft 279 kts 311°
2026-05-07 14:59 37.10639 126.92374 8517 ft 280 kts 311°
2026-05-07 14:59 37.11922 126.90556 8427 ft 281 kts 311°
2026-05-07 15:00 37.13216 126.88722 8347 ft 281 kts 311°
2026-05-07 15:00 37.14512 126.86885 8220 ft 278 kts 311°
2026-05-07 15:00 37.15782 126.85084 7829 ft 276 kts 311°
2026-05-07 15:00 37.17056 126.83277 7251 ft 275 kts 311°
2026-05-07 15:01 37.18317 126.81488 6603 ft 270 kts 311°
2026-05-07 15:01 37.19525 126.79776 6314 ft 251 kts 311°
2026-05-07 15:01 37.20636 126.78201 6144 ft 232 kts 311°
2026-05-07 15:01 37.21667 126.76741 5930 ft 215 kts 311°
2026-05-07 15:02 37.22610 126.75407 5258 ft 199 kts 311°
2026-05-07 15:02 37.23533 126.74087 4321 ft 203 kts 308°
2026-05-07 15:02 37.24173 126.72500 3893 ft 207 kts 290°
2026-05-07 15:02 37.24696 126.70797 3699 ft 205 kts 291°
2026-05-07 15:03 37.25177 126.69258 3620 ft 179 kts 291°
2026-05-07 15:03 37.25625 126.67824 3633 ft 171 kts 291°
2026-05-07 15:03 37.26036 126.66512 3632 ft 156 kts 291°
2026-05-07 15:03 37.26424 126.65272 3634 ft 151 kts 291°
2026-05-07 15:04 37.26812 126.64044 3636 ft 150 kts 294°
2026-05-07 15:04 37.27360 126.62947 3634 ft 150 kts 310°
2026-05-07 15:04 37.28133 126.62055 3630 ft 150 kts 321°
2026-05-07 15:04 37.28968 126.61282 3631 ft 150 kts 324°
2026-05-07 15:05 37.29802 126.60546 3634 ft 145 kts 324°
2026-05-07 15:05 37.30615 126.59818 3611 ft 144 kts 324°
2026-05-07 15:05 37.31439 126.59088 3413 ft 143 kts 324°
2026-05-07 15:05 37.32248 126.58370 3211 ft 142 kts 324°
2026-05-07 15:06 37.33039 126.57667 3032 ft 142 kts 324°
2026-05-07 15:06 37.33841 126.56955 2839 ft 141 kts 324°
2026-05-07 15:06 37.34639 126.56246 2660 ft 141 kts 324°
2026-05-07 15:06 37.35440 126.55534 2470 ft 140 kts 324°
2026-05-07 15:07 37.36248 126.54817 2274 ft 140 kts 324°
2026-05-07 15:07 37.37038 126.54114 2089 ft 140 kts 324°
2026-05-07 15:07 37.37825 126.53414 1895 ft 139 kts 324°
2026-05-07 15:07 37.38611 126.52716 1720 ft 139 kts 324°
2026-05-07 15:08 37.39398 126.52016 1530 ft 139 kts 324°
2026-05-07 15:08 37.40188 126.51314 1351 ft 138 kts 324°
2026-05-07 15:08 37.40968 126.50619 1165 ft 138 kts 324°
2026-05-07 15:08 37.41751 126.49922 993 ft 137 kts 324°
2026-05-07 15:09 37.42540 126.49220 800 ft 137 kts 324°
2026-05-07 15:09 37.43317 126.48528 627 ft 137 kts 324°
2026-05-07 15:09 37.44080 126.47850 424 ft 137 kts 324°
2026-05-07 15:09 37.44861 126.47152 257 ft 136 kts 324°
2026-05-07 15:10 37.45638 126.46455 90 ft 136 kts 324°
2026-05-07 15:10 37.46338 126.45826 39 ft 101 kts 325°
2026-05-07 15:10 37.46708 126.45505 37 ft 28 kts 325°
2026-05-07 15:10 37.46739 126.45477 37 ft 0 kts 325°
2026-05-07 15:11 37.46809 126.45417 38 ft 22 kts 325°
2026-05-07 15:11 37.46946 126.45297 38 ft 21 kts 325°
2026-05-07 15:11 37.47056 126.45196 40 ft 22 kts 323°
2026-05-07 15:11 37.47145 126.45113 39 ft 26 kts 323°
2026-05-07 15:12 37.47360 126.44905 38 ft 31 kts 316°
2026-05-07 15:12 37.47443 126.44765 37 ft 27 kts 297°
2026-05-07 15:12 37.47514 126.44561 37 ft 24 kts 295°
2026-05-07 15:12 37.47624 126.44422 38 ft 22 kts 326°
2026-05-07 15:13 37.47730 126.44330 38 ft 4 kts 325°
2026-05-07 15:13 37.47744 126.44317 38 ft 6 kts 321°
2026-05-07 15:13 37.47777 126.44262 38 ft 9 kts 280°
2026-05-07 15:13 37.47759 126.44179 38 ft 11 kts 235°
2026-05-07 15:14 37.47706 126.44088 39 ft 15 kts 233°
2026-05-07 15:14 37.47641 126.43977 39 ft 7 kts 234°
2026-05-07 15:14 37.47641 126.43976 39 ft 0 kts 234°
2026-05-07 15:16 37.47627 126.43950 38 ft 7 kts 235°
2026-05-07 15:16 37.47579 126.43903 37 ft 10 kts 190°
2026-05-07 15:16 37.47552 126.43908 37 ft 6 kts 153°
2026-05-07 15:16 37.47499 126.43947 37 ft 12 kts 141°
2026-05-07 15:17 37.47434 126.44024 37 ft 11 kts 136°
2026-05-07 15:17 37.47427 126.44032 37 ft 0 kts 140°
2026-05-07 15:18 37.47413 126.44047 37 ft 6 kts 140°
2026-05-07 15:18 37.47361 126.44097 37 ft 12 kts 144°
2026-05-07 15:18 37.47278 126.44170 37 ft 16 kts 145°
2026-05-07 15:18 37.47180 126.44255 37 ft 17 kts 145°
2026-05-07 15:19 37.47153 126.44279 37 ft 4 kts 146°
2026-05-07 15:19 37.47115 126.44296 37 ft 6 kts 186°
2026-05-07 15:19 37.47097 126.44290 37 ft 3 kts 212°
2026-05-07 15:19 37.47064 126.44254 37 ft 9 kts 232°
2026-05-07 15:20 37.47022 126.44176 37 ft 13 kts 236°
2026-05-07 15:20 37.46970 126.44086 37 ft 9 kts 220°
2026-05-07 15:20 37.46959 126.44078 37 ft 2 kts 194°
2026-05-07 15:20 37.46948 126.44077 37 ft 3 kts 169°
2026-05-07 15:21 37.46928 126.44091 37 ft 4 kts 140°
2026-05-07 15:21 37.46902 126.44119 37 ft 6 kts 140°
2026-05-07 15:21 37.46877 126.44140 37 ft 1 kts 178°
2026-05-07 15:21 37.46873 126.44139 37 ft 1 kts 191°
2026-05-07 15:22 37.46867 126.44138 37 ft 0 kts 203°
2026-05-07 15:22 37.46864 126.44136 37 ft 2 kts 204°
2026-05-07 15:22 37.46832 126.44113 37 ft 8 kts 221°
2026-05-07 15:22 37.46820 126.44096 37 ft 1 kts 243°
2026-05-07 15:23 37.46818 126.44089 37 ft 1 kts 253°
2026-05-07 15:23 37.46815 126.44076 37 ft 2 kts 259°
2026-05-07 15:23 37.46810 126.44052 37 ft 0 kts 232°
2026-05-07 15:23 37.46809 126.44052 37 ft 0 kts 232°